(80970) = 2000 DS112

Discovered at Socorro on 2000-02-29 by LINEAR.

Orbit

Orbit type: Main Belt

Note: WebGL enabled browser required.

epoch2024-03-31.0
epoch JD2460400.5
perihelion date2023-10-28.32187
perihelion JD2460245.82187
argument of perihelion (°)19.58832
ascending node (°)71.62121
inclination (°)5.10664
eccentricity0.1111272
perihelion distance (AU)2.2673855
Tisserand w.r.t. Jupiter3.4
ΔV w.r.t. Earth (km/sec)9.6
semimajor axis (AU)2.5508548
mean anomaly (°)37.42003
mean daily motion (°/day)0.24192190
aphelion distance (AU)2.834
period (years)4.07
P-vector [x]-0.01984579
P-vector [y]0.90502248
P-vector [z]0.42490052
Q-vector [x]-0.99622841
Q-vector [y]-0.05380548
Q-vector [z]0.06807295
absolute magnitude16.03
phase slope0.15
uncertainty0
referenceMPEC 2024-E179
observations used1255
oppositions19
arc length (days)10720
first opposition used1994
last opposition used2024
residual rms (arc-secs)0.62
perturbers coarse indicatorM-v
perturbers precise indicator003Ek
first observation date used1994-11-06.0
last observation date used2024-03-13.0
computer nameMPCLINUX
JD of orbit computation2456966.925147
perihelion JD uncertainty (days)1.9378E-04
argument of perihelion uncertainty (°)9.0422E-05
ascending node uncertainty (°)7.9129E-05
inclination uncertainty (°)3.2755E-06
eccentricity uncertainty 2.7320E-08
perihelion distance uncertainty (AU)7.0122E-08
Minimum Orbit Intersection Distances (in AU)
for orbit epoch: 2460200.5, reference: E2024-CG3
Mercury1.958
Venus1.54781
Earth1.28331
Mars0.66421
Jupiter2.33235
Saturn6.78729
Uranus15.9462
Neptune27.3494

Observations

1277 total observations over interval: 1994 11 06.38388 – 2024 03 13.172357
These data are available for download (format description).

Date (UT) J2000 RA J2000 Dec Magn Location Ref
1994 11 06.38388 02 34 51.26 +10 24 54.8 19.3 V 691 – Steward Observatory, Kitt Peak-Spacewatch MPS 22335
1994 11 06.40736 02 34 49.84 +10 24 51.5   691 – Steward Observatory, Kitt Peak-Spacewatch MPS 22335
1994 11 06.43166 02 34 48.35 +10 24 47.9   691 – Steward Observatory, Kitt Peak-Spacewatch MPS 22335
1996 04 22.14074 12 17 19.64 +05 31 11.8   691 – Steward Observatory, Kitt Peak-Spacewatch MPS 22335
1996 04 22.16173 12 17 18.82 +05 31 13.9   691 – Steward Observatory, Kitt Peak-Spacewatch MPS 22335
1996 04 22.18261 12 17 18.01 +05 31 14.8 20.0 V 691 – Steward Observatory, Kitt Peak-Spacewatch MPS 22335
1999 01 15.09861 01 49 38.87 +09 20 49.9 20.1 V 691 – Steward Observatory, Kitt Peak-Spacewatch MPS 22335
1999 01 15.11966 01 49 39.95 +09 20 59.6 20.6 V 691 – Steward Observatory, Kitt Peak-Spacewatch MPS 22335
1999 01 15.14065 01 49 41.09 +09 21 08.8 20.5 V 691 – Steward Observatory, Kitt Peak-Spacewatch MPS 22335
2000 02 29.39726 12 19 58.85 +06 39 33.7 18.5   704 – Lincoln Laboratory ETS, New Mexico MPS 12297
2000 02 29.41076 12 19 58.31 +06 39 39.2 19.2   704 – Lincoln Laboratory ETS, New Mexico MPS 12297
2000 02 29.42412 12 19 57.71 +06 39 42.8 19.5   704 – Lincoln Laboratory ETS, New Mexico MPS 12297
2000 03 12.41826 12 10 17.19 +07 48 51.2 19.0   704 – Lincoln Laboratory ETS, New Mexico MPS 12297
2000 03 12.43096 12 10 16.50 +07 48 55.0 19.6   704 – Lincoln Laboratory ETS, New Mexico MPS 12297
2000 03 12.44404 12 10 15.72 +07 48 59.0 19.1   704 – Lincoln Laboratory ETS, New Mexico MPS 12297
2000 03 12.45671 12 10 14.98 +07 49 03.3 19.2   704 – Lincoln Laboratory ETS, New Mexico MPS 12297
2000 04 03.29691 11 50 59.74 +09 26 53.1 19.1   704 – Lincoln Laboratory ETS, New Mexico MPS 16896
2000 04 03.31129 11 50 58.96 +09 26 57.3 19.4   704 – Lincoln Laboratory ETS, New Mexico MPS 16896
2000 04 03.32567 11 50 58.33 +09 26 58.7 18.8   704 – Lincoln Laboratory ETS, New Mexico MPS 16896
2000 04 03.34008 11 50 57.66 +09 27 01.2 19.2   704 – Lincoln Laboratory ETS, New Mexico MPS 16896
2000 04 03.35448 11 50 56.90 +09 27 02.9 19.4   704 – Lincoln Laboratory ETS, New Mexico MPS 16896
2000 04 07.21501 11 48 01.41 +09 36 43.2 19.0 R 699 – Lowell Observatory-LONEOS MPS 16896
2000 04 07.23561 11 48 00.44 +09 36 46.4   699 – Lowell Observatory-LONEOS MPS 16896
2000 04 07.25620 11 47 59.57 +09 36 47.7   699 – Lowell Observatory-LONEOS MPS 16896
2000 04 07.27680 11 47 58.62 +09 36 51.0   699 – Lowell Observatory-LONEOS MPS 16896
2002 09 29.41075 01 37 57.07 +02 42 32.8 20.3   608 – Haleakala-AMOS MPS 62910
2002 09 29.42136 01 37 56.55 +02 42 30.1 20.4   608 – Haleakala-AMOS MPS 62910
2002 09 29.43244 01 37 56.01 +02 42 27.7 20.2   608 – Haleakala-AMOS MPS 62910
2002 10 01.32535 01 36 27.22 +02 34 15.5 19.1 R 699 – Lowell Observatory-LONEOS MPS 62910
2002 10 01.34736 01 36 26.15 +02 34 08.4   699 – Lowell Observatory-LONEOS MPS 62910
2002 10 01.36935 01 36 25.00 +02 34 03.7   699 – Lowell Observatory-LONEOS MPS 62910
2002 10 01.39129 01 36 23.94 +02 33 58.6   699 – Lowell Observatory-LONEOS MPS 62910
2002 10 03.25470 01 34 52.92 +02 25 51.0 19.3   704 – Lincoln Laboratory ETS, New Mexico MPS 62910
2002 10 03.26972 01 34 52.17 +02 25 47.2 19.1   704 – Lincoln Laboratory ETS, New Mexico MPS 62910
2002 10 03.28466 01 34 51.47 +02 25 44.7 19.7   704 – Lincoln Laboratory ETS, New Mexico MPS 62910
2002 10 03.31449 01 34 49.77 +02 25 35.6 20.0   704 – Lincoln Laboratory ETS, New Mexico MPS 62910
2002 10 11.24685 01 27 51.35 +01 51 12.2 18.7   704 – Lincoln Laboratory ETS, New Mexico MPS 62910
2002 10 11.26185 01 27 50.57 +01 51 08.3 18.9   704 – Lincoln Laboratory ETS, New Mexico MPS 62910
2002 10 11.27688 01 27 49.69 +01 51 04.2 18.4   704 – Lincoln Laboratory ETS, New Mexico MPS 62910
2002 10 11.29184 01 27 48.85 +01 51 01.4 18.8   704 – Lincoln Laboratory ETS, New Mexico MPS 62910
2002 10 11.30684 01 27 47.99 +01 50 57.1 18.8   704 – Lincoln Laboratory ETS, New Mexico MPS 62910
2002 10 31.24800 01 09 54.44 +00 45 05.4 19.3   704 – Lincoln Laboratory ETS, New Mexico MPS 65576
2002 10 31.249900 01 09 54.454 +00 45 05.42 19.34 V 645 – Apache Point-Sloan Digital Sky Survey MPS 79653
2002 10 31.253372 01 09 54.278 +00 45 04.97 20.17   645 – Apache Point-Sloan Digital Sky Survey MPS 79653
2002 10 31.26519 01 09 53.69 +00 45 03.6 19.3   704 – Lincoln Laboratory ETS, New Mexico MPS 65576
2002 10 31.28227 01 09 52.82 +00 45 01.1 19.5   704 – Lincoln Laboratory ETS, New Mexico MPS 65576
2002 10 31.29940 01 09 51.96 +00 44 59.1 19.1   704 – Lincoln Laboratory ETS, New Mexico MPS 65576
2002 10 31.31655 01 09 51.11 +00 44 57.0 19.3   704 – Lincoln Laboratory ETS, New Mexico MPS 65576
2002 11 08.253310 01 04 06.507 +00 34 18.18 19.60 V 645 – Apache Point-Sloan Digital Sky Survey MPS 79653
2002 11 08.256782 01 04 06.368 +00 34 18.09 20.35   645 – Apache Point-Sloan Digital Sky Survey MPS 79653
2003 12 28.42085 11 44 40.49 +08 16 02.1 20.0   704 – Lincoln Laboratory ETS, New Mexico MPS 95694
2003 12 28.43384 11 44 41.02 +08 16 00.3 19.9   704 – Lincoln Laboratory ETS, New Mexico MPS 95694
2003 12 28.44711 11 44 41.59 +08 15 59.6 20.2   704 – Lincoln Laboratory ETS, New Mexico MPS 95694
2003 12 28.46008 11 44 42.11 +08 15 57.2 20.0   704 – Lincoln Laboratory ETS, New Mexico MPS 95694
2004 02 13.48656 11 50 33.10 +09 54 14.1 20.0 V 691 – Steward Observatory, Kitt Peak-Spacewatch MPS 110195
2004 02 13.50098 11 50 32.61 +09 54 18.8 20.0 V 691 – Steward Observatory, Kitt Peak-Spacewatch MPS 110195
2004 02 13.51432 11 50 32.16 +09 54 23.4 20.2 V 691 – Steward Observatory, Kitt Peak-Spacewatch MPS 110195
2004 02 29.41664 11 39 08.89 +11 30 23.4 19.2 V 691 – Steward Observatory, Kitt Peak-Spacewatch MPS 100661
2004 02 29.45156 11 39 07.03 +11 30 36.1 19.2 V 691 – Steward Observatory, Kitt Peak-Spacewatch MPS 100661
2004 02 29.47893 11 39 05.57 +11 30 46.1 19.2 V 691 – Steward Observatory, Kitt Peak-Spacewatch MPS 100661
2004 03 15.27629 11 25 43.78 +12 52 13.4 19.2   704 – Lincoln Laboratory ETS, New Mexico MPS 101037
2004 03 15.28742 11 25 43.12 +12 52 17.0 19.0   704 – Lincoln Laboratory ETS, New Mexico MPS 101037
2004 03 15.29843 11 25 42.48 +12 52 19.7 19.5   704 – Lincoln Laboratory ETS, New Mexico MPS 101037
2004 03 15.30939 11 25 41.87 +12 52 23.3 19.6   704 – Lincoln Laboratory ETS, New Mexico MPS 101037
2004 03 15.32046 11 25 41.24 +12 52 26.6 19.5   704 – Lincoln Laboratory ETS, New Mexico MPS 101037
2004 03 19.27869 11 22 09.55 +13 09 35.8 19.0   644 – Palomar Mountain/NEAT MPS 102016
2004 03 19.27993 11 22 09.47 +13 09 36.3 19.2   644 – Palomar Mountain/NEAT MPS 102016
2004 03 19.29916 11 22 08.42 +13 09 41.1 19.1   644 – Palomar Mountain/NEAT MPS 102016
2004 03 19.30038 11 22 08.34 +13 09 41.3 19.2   644 – Palomar Mountain/NEAT MPS 102016
2004 03 19.32053 11 22 07.27 +13 09 46.1 19.2   644 – Palomar Mountain/NEAT MPS 102016
2004 03 19.32179 11 22 07.18 +13 09 46.4 19.1   644 – Palomar Mountain/NEAT MPS 102016
2004 03 20.28384 11 21 16.98 +13 13 31.7 19.8   704 – Lincoln Laboratory ETS, New Mexico MPS 102016
2004 03 20.29475 11 21 16.48 +13 13 35.4 19.7   704 – Lincoln Laboratory ETS, New Mexico MPS 102016
2004 03 20.30564 11 21 15.90 +13 13 37.6 19.5   704 – Lincoln Laboratory ETS, New Mexico MPS 102016
2004 03 20.31688 11 21 15.25 +13 13 40.9 19.2   704 – Lincoln Laboratory ETS, New Mexico MPS 102016
2004 03 20.33022 11 21 14.52 +13 13 42.5 19.7   704 – Lincoln Laboratory ETS, New Mexico MPS 102016
2004 03 22.32280 11 19 32.86 +13 20 59.4 20.0   704 – Lincoln Laboratory ETS, New Mexico MPS 102016
2004 03 22.33481 11 19 32.23 +13 21 00.7 19.5   704 – Lincoln Laboratory ETS, New Mexico MPS 102016
2004 03 22.34631 11 19 31.57 +13 21 02.0 19.9   704 – Lincoln Laboratory ETS, New Mexico MPS 102016
2004 03 23.28459 11 18 44.89 +13 24 14.1 19.4   704 – Lincoln Laboratory ETS, New Mexico MPS 102016
2004 03 23.29511 11 18 44.32 +13 24 16.2 19.9   704 – Lincoln Laboratory ETS, New Mexico MPS 102016
2004 03 23.30594 11 18 43.78 +13 24 18.5 19.9   704 – Lincoln Laboratory ETS, New Mexico MPS 102016
2004 03 23.31688 11 18 43.27 +13 24 21.0 20.0   704 – Lincoln Laboratory ETS, New Mexico MPS 102016
